Voltar ao catálogo

STARLINK-35749

AtivoComunicaçõesVLEO
NORAD 66879·PAYLOAD·🇺🇸 United States

Lançado Dec 4, 2025 de Vandenberg Space Force Base

Loading…

Próximas Passagens (próximas 24 horas)

TLE

AtualizadoSource: CelesTrak SupGP

Época: Sep 15, 2026, 03:51 UTC

1 66879C 25283B   26258.16090278 -.00058306  00000+0 -17229-2 0  2586
2 66879  53.1577 222.9112 0001453  93.3277 125.6309 15.34414655    14

Acompanhe STARLINK-35749 em tempo real com AllMySat

Download on the App Store